When you browse on this site, cookies collect data to enhance your experience and personalize the content and advertising you see.
Visit our Privacy Policy to learn more. By continuing to use the site, you agree to this use of cookies and data.
  • In Romania
  • List of Countries
  • For 7 days
  • Water Temperature
  • Satellite Maps
  • Weather Map
  • Weather Widgets
  • user-avatar
    Login

    Hourly Weather Manturevo

    Today, 24 July, Wednesday

    Time Temperature Precipitation Wind Pressure Humidity
    00:00 +14°C° 0 mm 1 mps 744 mmHg 86%
    01:00 +14°C° 0 mm 1 mps 744 mmHg 89%
    02:00 +13°C° 0 mm 1 mps 744 mmHg 92%
    03:00 +13°C° 0 mm 1 mps 744 mmHg 92%
    04:00 +14°C° 0 mm 1 mps 744 mmHg 91%
    05:00 +14°C° 0 mm 2 mps 744 mmHg 91%
    06:00 +16°C° 0 mm 2 mps 744 mmHg 85%
    07:00 +17°C° 0 mm 2 mps 744 mmHg 78%
    08:00 +19°C° 0 mm 2 mps 744 mmHg 72%
    09:00 +19°C° 0.2 mm 2 mps 744 mmHg 72%
    10:00 +20°C° 0.2 mm 3 mps 745 mmHg 72%
    11:00 +21°C° 0.2 mm 3 mps 745 mmHg 71%
    12:00 +21°C° 0.3 mm 3 mps 745 mmHg 70%
    13:00 +21°C° 0.3 mm 3 mps 745 mmHg 70%
    14:00 +21°C° 0.3 mm 3 mps 745 mmHg 69%
    15:00 +21°C° 0.1 mm 3 mps 745 mmHg 69%
    16:00 +21°C° 0.1 mm 3 mps 745 mmHg 69%
    17:00 +20°C° 0.1 mm 2 mps 745 mmHg 70%
    18:00 +19°C° 0 mm 2 mps 745 mmHg 77%
    19:00 +17°C° 0 mm 2 mps 744 mmHg 85%
    20:00 +16°C° 0 mm 2 mps 744 mmHg 93%
    21:00 +15°C° 0 mm 2 mps 744 mmHg 95%
    22:00 +15°C° 0 mm 2 mps 745 mmHg 96%
    23:00 +15°C° 0 mm 1 mps 745 mmHg 98%

    Tomorrow, 25 July, Thursday

    Time Temperature Precipitation Wind Pressure Humidity
    00:00 +15°C° 0.2 mm 1 mps 745 mmHg 98%
    01:00 +15°C° 0.2 mm 1 mps 745 mmHg 98%
    02:00 +15°C° 0.2 mm 1 mps 744 mmHg 98%
    03:00 +15°C° 0.9 mm 2 mps 745 mmHg 98%
    04:00 +15°C° 0.9 mm 2 mps 745 mmHg 98%
    05:00 +15°C° 0.9 mm 2 mps 745 mmHg 98%
    06:00 +16°C° 1.4 mm 2 mps 745 mmHg 98%
    07:00 +16°C° 1.4 mm 2 mps 745 mmHg 98%
    08:00 +16°C° 1.4 mm 2 mps 745 mmHg 98%
    09:00 +17°C° 0.3 mm 3 mps 746 mmHg 96%
    10:00 +19°C° 0.3 mm 3 mps 746 mmHg 93%
    11:00 +20°C° 0.3 mm 4 mps 746 mmHg 91%
    12:00 +20°C° 0.6 mm 4 mps 746 mmHg 91%
    13:00 +20°C° 0.6 mm 4 mps 747 mmHg 91%
    14:00 +20°C° 0.6 mm 4 mps 747 mmHg 91%
    15:00 +20°C° 0.2 mm 4 mps 747 mmHg 90%
    16:00 +20°C° 0.2 mm 3 mps 747 mmHg 89%
    17:00 +20°C° 0.2 mm 3 mps 747 mmHg 88%
    18:00 +19°C° 0 mm 3 mps 748 mmHg 89%
    19:00 +19°C° 0 mm 3 mps 748 mmHg 90%
    20:00 +18°C° 0 mm 3 mps 748 mmHg 91%
    21:00 +17°C° 0 mm 2 mps 749 mmHg 92%
    22:00 +17°C° 0 mm 2 mps 749 mmHg 94%
    23:00 +16°C° 0 mm 2 mps 749 mmHg 95%

    Day after tomorrow, 26 July, Friday

    Time Temperature Precipitation Wind Pressure Humidity
    00:00 +16°C° 0 mm 2 mps 749 mmHg 95%
    01:00 +15°C° 0 mm 2 mps 749 mmHg 94%
    02:00 +15°C° 0 mm 2 mps 750 mmHg 93%
    03:00 +16°C° 0 mm 2 mps 750 mmHg 92%
    04:00 +16°C° 0 mm 2 mps 750 mmHg 91%
    05:00 +17°C° 0 mm 3 mps 750 mmHg 90%
    06:00 +19°C° 0 mm 3 mps 750 mmHg 85%
    07:00 +21°C° 0 mm 3 mps 750 mmHg 80%
    08:00 +24°C° 0 mm 3 mps 750 mmHg 75%
    09:00 +25°C° 0 mm 3 mps 750 mmHg 69%
    10:00 +26°C° 0 mm 3 mps 750 mmHg 64%
    11:00 +27°C° 0 mm 3 mps 750 mmHg 59%
    12:00 +28°C° 0 mm 3 mps 750 mmHg 57%
    13:00 +28°C° 0 mm 4 mps 750 mmHg 55%
    14:00 +28°C° 0 mm 4 mps 750 mmHg 53%
    15:00 +28°C° 0 mm 3 mps 750 mmHg 57%
    16:00 +28°C° 0 mm 3 mps 749 mmHg 61%
    17:00 +27°C° 0 mm 2 mps 749 mmHg 65%
    18:00 +25°C° 0 mm 2 mps 749 mmHg 70%
    19:00 +24°C° 0 mm 2 mps 749 mmHg 75%
    20:00 +21°C° 0 mm 2 mps 749 mmHg 80%
    21:00 +20°C° 0 mm 2 mps 749 mmHg 83%
    22:00 +19°C° 0 mm 2 mps 749 mmHg 85%
    23:00 +18°C° 0 mm 2 mps 749 mmHg 88%

    27 July, Saturday

    Time Temperature Precipitation Wind Pressure Humidity
    00:00 +18°C° 0 mm 2 mps 749 mmHg 89%
    01:00 +18°C° 0 mm 2 mps 749 mmHg 89%
    02:00 +17°C° 0 mm 2 mps 748 mmHg 90%
    03:00 +17°C° 0 mm 2 mps 748 mmHg 89%
    04:00 +18°C° 0 mm 2 mps 748 mmHg 87%
    05:00 +18°C° 0 mm 2 mps 748 mmHg 86%
    06:00 +20°C° 0 mm 2 mps 748 mmHg 81%
    07:00 +21°C° 0 mm 2 mps 748 mmHg 77%
    08:00 +24°C° 0 mm 2 mps 748 mmHg 73%
    09:00 +25°C° 0 mm 2 mps 747 mmHg 68%
    10:00 +26°C° 0 mm 2 mps 747 mmHg 62%
    11:00 +27°C° 0 mm 3 mps 747 mmHg 57%
    12:00 +28°C° 0.1 mm 3 mps 747 mmHg 55%
    13:00 +28°C° 0.1 mm 3 mps 746 mmHg 53%
    14:00 +29°C° 0.1 mm 3 mps 745 mmHg 50%
    15:00 +29°C° 0 mm 3 mps 745 mmHg 54%
    16:00 +28°C° 0 mm 3 mps 745 mmHg 57%
    17:00 +28°C° 0 mm 2 mps 744 mmHg 61%
    18:00 +25°C° 0.1 mm 3 mps 744 mmHg 70%
    19:00 +22°C° 0.1 mm 3 mps 744 mmHg 79%
    20:00 +20°C° 0.1 mm 4 mps 744 mmHg 88%
    21:00 +19°C° 0 mm 4 mps 744 mmHg 88%
    22:00 +18°C° 0 mm 4 mps 744 mmHg 87%
    23:00 +17°C° 0 mm 4 mps 745 mmHg 86%

    28 July, Sunday

    Time Temperature Precipitation Wind Pressure Humidity
    00:00 +15°C° 0 mm 4 mps 745 mmHg 84%
    01:00 +13°C° 0 mm 4 mps 745 mmHg 81%
    02:00 +12°C° 0 mm 4 mps 745 mmHg 78%
    03:00 +12°C° 0 mm 4 mps 745 mmHg 77%
    04:00 +11°C° 0 mm 4 mps 746 mmHg 76%
    05:00 +10°C° 0 mm 4 mps 746 mmHg 75%
    06:00 +11°C° 0 mm 4 mps 746 mmHg 71%
    07:00 +11°C° 0 mm 4 mps 746 mmHg 66%
    08:00 +11°C° 0 mm 4 mps 746 mmHg 62%
    09:00 +11°C° 0 mm 4 mps 746 mmHg 59%
    10:00 +12°C° 0 mm 4 mps 746 mmHg 57%
    11:00 +13°C° 0 mm 5 mps 747 mmHg 55%
    12:00 +13°C° 0 mm 5 mps 746 mmHg 54%
    13:00 +13°C° 0 mm 5 mps 746 mmHg 54%
    14:00 +13°C° 0 mm 5 mps 746 mmHg 54%
    15:00 +12°C° 0 mm 4 mps 746 mmHg 56%
    16:00 +12°C° 0 mm 4 mps 746 mmHg 57%
    17:00 +11°C° 0 mm 4 mps 746 mmHg 59%
    18:00 +10°C° 0 mm 4 mps 746 mmHg 61%
    19:00 +10°C° 0 mm 3 mps 746 mmHg 63%
    20:00 +10°C° 0 mm 2 mps 746 mmHg 65%
    21:00 +9°C° 0 mm 2 mps 746 mmHg 65%
    22:00 +9°C° 0 mm 3 mps 746 mmHg 66%
    23:00 +9°C° 0 mm 3 mps 746 mmHg 66%

    29 July, Monday

    Time Temperature Precipitation Wind Pressure Humidity
    00:00 +9°C° 0 mm 3 mps 746 mmHg 67%
    01:00 +8°C° 0 mm 3 mps 746 mmHg 68%
    02:00 +8°C° 0 mm 3 mps 746 mmHg 69%
    03:00 +7°C° 0 mm 3 mps 745 mmHg 70%
    04:00 +7°C° 0 mm 3 mps 745 mmHg 71%
    05:00 +7°C° 0 mm 3 mps 745 mmHg 73%
    06:00 +8°C° 0 mm 3 mps 745 mmHg 69%
    07:00 +7°C° 0 mm 4 mps 745 mmHg 65%
    08:00 +8°C° 0 mm 4 mps 745 mmHg 61%
    09:00 +8°C° 0.1 mm 4 mps 744 mmHg 63%
    10:00 +8°C° 0.1 mm 4 mps 744 mmHg 65%
    11:00 +8°C° 0.1 mm 4 mps 744 mmHg 67%
    12:00 +8°C° 0.2 mm 5 mps 744 mmHg 69%
    13:00 +8°C° 0.2 mm 5 mps 743 mmHg 72%
    14:00 +8°C° 0.2 mm 5 mps 743 mmHg 74%
    15:00 +8°C° 0.2 mm 5 mps 743 mmHg 75%
    16:00 +8°C° 0.2 mm 5 mps 743 mmHg 77%
    17:00 +8°C° 0.2 mm 5 mps 742 mmHg 78%
    18:00 +7°C° 0.2 mm 4 mps 742 mmHg 82%
    19:00 +6°C° 0.2 mm 4 mps 742 mmHg 87%
    20:00 +7°C° 0.2 mm 3 mps 742 mmHg 91%
    21:00 +5°C° 0.1 mm 3 mps 742 mmHg 92%
    22:00 +4°C° 0.1 mm 3 mps 742 mmHg 94%
    23:00 +4°C° 0.1 mm 3 mps 742 mmHg 95%
    Show more